Tracking 31027 objects as of 19-Jul-2025
HD Live streaming from Space Station
objects crossing your sky now

SL-14 DEB

Track SL-14 DEB now!
10-day predictions


NORAD ID: 39973
Int'l Code: 1987-068CZ
Perigee: 713.9 km
Apogee: 744.3 km
Inclination: 83.0 °
Period: 99.2 minutes
Semi major axis: 7100 km
RCS: 0.0059 m2 (small)
Launch date: August 18, 1987
Source: Commonwealth of Independent States (former USSR) (CIS)
Launch site: PLESETSK MISSILE AND SPACE COMPLEX (PKMTR)

Note: This is SATELLITE DEBRIS
Your satellite tracking list
CREW DRAGON DEMO-2 DEB
Track 1 satellite(s)




NASA's NSSDC Master Catalog

Two Line Element Set (TLE):
1 39973U 87068CZ  25197.27496969  .00003267  00000-0  81684-3 0  9994
2 39973  83.0280 192.1847 0021419 154.2029 206.0243 14.51137404581771
Source of the keplerian elements: AFSPC